Hourly Data Report for September 11, 2017

All times are specified in Local Standard Time (LST). Add 1 hour to adjust for Daylight Saving Time where and when it is observed.

PORT ALBERNI (AUT)
BRITISH COLUMBIA

49°18'59.700" N
124°55'36.600" W
76.20 m
1036B06
71475
WQC

Download Data

Hourly Data (September 2017)
Hourly Data Report for September 11, 2017
Temp Definition
°C
Dew Point Temp Definition
°C
Rel Hum Definition
%
Wind Dir Definition
10's deg

Wind Spd Definition
km/h
Visibility Definition
km
Stn Press Definition
kPa
Hmdx Definition


Wind Chill Definition


Weather Definition


TIME
00:00 14.4 12.2 87 36 6   101.50     LegendNANA
01:00 14.3 12.3 88 1 17   101.46     LegendNANA
02:00 13.9 12.2 90 1 8   101.41     LegendNANA
03:00 12.0 10.9 93 1 4   101.38     LegendNANA
04:00 10.4 9.6 95 30 17   101.35     LegendNANA
05:00 9.2 8.6 96 33 4   101.30     LegendNANA
06:00 9.0 8.4 96 31 4   101.26     LegendNANA
07:00 11.4 10.8 96 34 3   101.25     LegendNANA
08:00 14.4 12.1 86 15 12   101.20     LegendNANA
09:00 16.9 12.5 76 5 2   101.16     LegendNANA
10:00 20.2 12.0 59 17 4   101.13     LegendNANA
11:00 21.3 11.6 54 19 9   101.10     LegendNANA
12:00 22.9 11.2 48 22 13   101.05 25   LegendNANA
13:00 23.1 11.2 47 25 12   101.02 25   LegendNANA
14:00 22.0 12.1 54 24 10   100.99     LegendNANA
15:00 22.9 12.2 51 20 10   100.91 25   LegendNANA
16:00 22.1 12.4 54 20 9   100.90 25   LegendNANA
17:00 21.6 13.0 58 21 6   100.88     LegendNANA
18:00 20.7 13.3 63 21 7   100.88     LegendNANA
19:00 19.5 13.7 69 18 4   100.86     LegendNANA
20:00 18.4 14.9 80 13 5   100.86     LegendNANA
21:00 17.9 14.9 83 14 6   100.82     LegendNANA
22:00 17.1 14.7 86 15 4   100.81     LegendNANA
23:00 17.2 14.7 85 25 3   100.80     LegendNANA

Notes on Data Quality.

Legend

  • E = Estimated
  • M = Missing
  • NA = Not Available
  • ‡ = Partner data that is not subject to review by the National Climate Archives
Date modified: